Regional Weather Roundup
Issued by NWS Kansas City/Pleasant Hill, MO

Home | Current Version | Previous Version | Text Only | Print | Product List | Glossary On
Versions: 1 2 3 4 5 6 7 8 9 10 11 12 13 14 15 16 17 18 19 20 21 22 23 24 25 26 27 28 29 30 31 32 33 34 35 36 37 38 39 40 41 42 43 44 45 46 47 48 49 50
000
ASUS43 KEAX 271910
RWREAX

WEATHER ROUNDUP FOR EASTERN KANSAS AND NORTHWEST MISSOURI
NATIONAL WEATHER SERVICE KANSAS CITY/PLEASANT HILL MO
100 PM CST TUE JAN 27 2015

KSZ040-057-103>105-MOZ028-029-037-043-272000-
...KANSAS CITY METROPOLITAN AREA...

CITY           SKY/WX    TMP DP  RH WIND       PRES   REMARKS
K.C. INTL      MOSUNNY   51  33  50 CALM      30.13F
K.C. DOWNTOWN  SUNNY     52  32  46 VRB3      30.13F
LEES SUMMIT    SUNNY     51  31  46 SE5       30.14F
OLATHE - IXD   SUNNY     52  34  50 E7        30.13F
OLATHE - OJC   SUNNY     52  32  46 VRB5      30.12F
LAWRENCE       SUNNY     52  33  48 SE5       30.13F

$$

MOZ001>008-011>017-020>025-030>033-038>040-044>046-053-054-272000-
...NORTHERN AND CENTRAL MISSOURI...

CITY           SKY/WX    TMP DP  RH WIND       PRES   REMARKS
ST. JOSEPH     SUNNY     50  32  50 S5        30.13F
MOSBY          CLEAR     50  32  50 E5        30.14F
WARRENSBURG    SUNNY     50  32  50 CALM      30.15F
WHITEMAN AFB   SUNNY     49  34  55 N3        30.15F
CLINTON        SUNNY     50  34  53 CALM      30.16F
SEDALIA        SUNNY     49  33  54 CALM      30.16F
WARSAW         NOT AVBL
MARSHALL       SUNNY     48  36  61 E3        30.18F
CHILLICOTHE      N/A     47  33  58 S6        30.16F
MOBERLY        SUNNY     46  32  57 CALM      30.17F
KIRKSVILLE     MOSUNNY   43  32  65 CALM      30.17F

$$

MOZ041-047>049-056>058-063>065-088>090-097-272000-
...EASTERN AND SOUTHERN MISSOURI...

CITY           SKY/WX    TMP DP  RH WIND       PRES   REMARKS
ST. LOUIS INTL PTSUNNY   44  31  60 N9        30.15F
SPIRIT OF STL  PTSUNNY   46  31  55 N7        30.15F
COLUMBIA       SUNNY     47  34  60 W3        30.15F
JEFFERSON CITY SUNNY     47  33  58 CALM      30.16F
MEXICO         MOSUNNY   46  37  71 CALM      30.16F
HANNIBAL       CLOUDY    45  28  53 W3        30.16F
ROLLA          MOSUNNY   47  33  58 CALM      30.12F
LEBANON        SUNNY     52  32  46 CALM      30.14S
OSAGE BEACH    SUNNY     50  30  46 NE6       30.15F
SPRINGFIELD    SUNNY     54  30  40 VRB3      30.14F
BRANSON        SUNNY     59  32  36 N3        30.15F
NEVADA         SUNNY     54  34  47 E3        30.15F
JOPLIN         SUNNY     57  31  37 VRB3      30.14F
WEST PLAINS    SUNNY     53  29  39 NW6       30.13F

$$

IAZ060-094-KSZ022-034>040-054-083-096-NEZ052-066-093-272000-
...KANSAS...SOUTHEAST NEBRASKA AND IOWA...

CITY           SKY/WX    TMP DP  RH WIND       PRES   REMARKS
TOPEKA         SUNNY     56  33  42 E8        30.12F
MANHATTAN      SUNNY     62  34  35 S14       30.06F
EMPORIA        SUNNY     59  34  39 SE10      30.09F
CHANUTE        SUNNY     58  35  42 SE7       30.13F
WICHITA        MOSUNNY   66  34  30 S16       30.07F
OMAHA          MOSUNNY   48  34  58 SE13      30.09F
LINCOLN        SUNNY     54  33  45 SE13      30.08F
FALLS CITY     SUNNY     51  33  50 S12       30.11F
LAMONI         SUNNY     45  31  58 S5        30.13F
DES MOINES     MOSUNNY   43  30  60 E6        30.15F

$$




USA.gov is the U.S. government's official web portal to all federal, state and local government web resources and services.